QPF
0.00 0.00 0.00 0.00 0.00 0.00 0.00 0.00 0.00 0.00 0.00 0.00 0.00 0.00 0.00 0.00 0.00 0.00 0.00 0.00 0.00 0.00 0.00 0.00 0.00 0.00 0.00 0.00 0.00 0.00 0.00 0.00 0.00 0.01 0.01 0.05 0.07 0.05 0.03 0.03 0.00 0.00 0.02
0.00 0.00 0.00 0.00 0.00 0.00 0.00 0.00 0.00 0.00 0.00 0.00 0.00 0.00 0.00 0.00 0.00 0.00 0.00 0.00 0.00 0.00 0.00 0.00 0.00 0.00 0.00 0.00 0.00 0.00 0.00 0.00 0.00 0.00 0.02 0.06 0.09 0.10 0.07 0.02 0.00 0.00 0.00
0.00 0.00 0.00 0.00 0.00 0.00 0.00 0.00 0.00 0.00 0.00 0.00 0.00 0.00 0.00 0.00 0.00 0.00 0.00 0.00 0.00 0.00 0.00 0.00 0.00 0.00 0.00 0.00 0.00 0.00 0.00 0.00 0.00 0.00 0.00 0.04 0.07 0.07 0.07 0.03 0.02 0.01 0.00
0.00 0.00 0.00 0.00 0.00 0.00 0.00 0.00 0.00 0.00 0.00 0.00 0.00 0.00 0.00 0.00 0.00 0.00 0.00 0.00 0.00 0.00 0.00 0.00 0.00 0.00 0.00 0.00 0.00 0.00 0.00 0.00 0.00 0.00 0.00 0.00 0.03 0.06 0.04 0.02 0.07 0.09 0.07
0.00 0.00 0.00 0.00 0.00 0.00 0.00 0.00 0.00 0.00 0.00 0.00 0.00 0.00 0.00 0.00 0.00 0.00 0.00 0.00 0.00 0.00 0.00 0.00 0.00 0.00 0.00 0.00 0.00 0.00 0.00 0.00 0.00 0.00 0.00 0.00 0.00 0.01 0.03 0.03 0.06 0.10 0.09
0.00 0.00 0.00 0.00 0.00 0.00 0.00 0.00 0.00 0.00 0.00 0.00 0.00 0.00 0.00 0.00 0.00 0.00 0.00 0.00 0.00 0.00 0.00 0.00 0.00 0.00 0.00 0.00 0.00 0.00 0.00 0.00 0.00 0.00 0.00 0.00 0.00 0.00 0.00 0.02 0.04 0.08 0.10
0.00 0.00 0.00 0.00 0.00 0.00 0.00 0.00 0.00 0.00 0.00 0.00 0.00 0.00 0.00 0.00 0.00 0.00 0.00 0.00 0.00 0.00 0.00 0.00 0.00 0.00 0.00 0.00 0.00 0.00 0.00 0.00 0.00 0.00 0.00 0.00 0.00 0.00 0.00 0.00 0.01 0.04 0.06
0.00 0.00 0.00 0.00 0.00 0.00 0.00 0.00 0.00 0.00 0.00 0.00 0.00 0.00 0.00 0.00 0.00 0.00 0.00 0.00 0.00 0.00 0.00 0.00 0.00 0.00 0.00 0.00 0.00 0.00 0.00 0.00 0.00 0.00 0.00 0.00 0.00 0.00 0.00 0.00 0.00 0.00 0.01
0.00 0.00 0.00 0.00 0.00 0.00 0.00 0.00 0.00 0.00 0.00 0.00 0.00 0.00 0.00 0.00 0.00 0.00 0.00 0.00 0.00 0.00 0.00 0.00 0.00 0.00 0.00 0.00 0.00 0.00 0.00 0.00 0.00 0.00 0.00 0.00 0.00 0.00 0.00 0.00 0.00 0.00 0.00
0.00 0.00 0.00 0.00 0.00 0.00 0.00 0.00 0.00 0.00 0.00 0.00 0.00 0.00 0.00 0.00 0.00 0.00 0.00 0.00 0.00 0.00 0.00 0.00 0.00 0.00 0.00 0.00 0.00 0.00 0.00 0.00 0.00 0.00 0.00 0.00 0.00 0.00 0.00 0.00 0.00 0.00 0.00
0.00 0.00 0.00 0.00 0.00 0.00 0.00 0.00 0.00 0.00 0.00 0.00 0.00 0.00 0.00 0.00 0.00 0.00 0.00 0.00 0.00 0.00 0.00 0.00 0.00 0.00 0.00 0.00 0.00 0.00 0.00 0.00 0.00 0.00 0.00 0.00 0.00 0.00 0.00 0.00 0.00 0.00 0.00
0.00 0.00 0.00 0.00 0.00 0.00 0.00 0.00 0.00 0.00 0.00 0.00 0.00 0.00 0.00 0.00 0.00 0.00 0.00 0.00 0.00 0.00 0.00 0.00 0.00 0.00 0.00 0.00 0.01 0.01 0.00 0.00 0.00 0.00 0.00 0.00 0.00 0.00 0.00 0.00 0.00 0.00 0.00
0.00 0.00 0.00 0.00 0.00 0.00 0.00 0.00 0.00 0.00 0.00 0.00 0.00 0.00 0.00 0.00 0.00 0.00 0.01 0.00 0.00 0.00 0.00 0.00 0.00 0.00 0.00 0.00 0.01 0.00 0.00 0.00 0.00 0.00 0.00 0.00 0.00 0.00 0.00 0.00 0.00 0.00 0.00
0.00 0.00 0.00 0.00 0.00 0.00 0.00 0.00 0.00 0.00 0.00 0.00 0.00 0.00 0.00 0.01 0.01 0.01 0.01 0.01 0.00 0.00 0.00 0.00 0.00 0.00 0.00 0.00 0.00 0.00 0.00 0.00 0.00 0.00 0.00 0.00 0.00 0.00 0.00 0.00 0.00 0.00 0.00
0.00 0.00 0.00 0.00 0.00 0.00 0.00 0.00 0.00 0.00 0.00 0.00 0.00 0.00 0.00 0.01 0.01 0.01 0.01 0.00 0.00 0.00 0.00 0.00 0.00 0.00 0.00 0.00 0.00 0.00 0.00 0.00 0.00 0.00 0.00 0.00 0.00 0.00 0.00 0.00 0.00 0.00 0.00
0.00 0.00 0.00 0.00 0.00 0.00 0.00 0.00 0.00 0.00 0.00 0.00 0.00 0.00 0.00 0.00 0.00 0.01 0.01 0.00 0.00 0.00 0.00 0.00 0.00 0.00 0.00 0.00 0.00 0.00 0.00 0.00 0.00 0.00 0.00 0.00 0.00 0.00 0.00 0.00 0.00 0.00 0.00
0.00 0.00 0.00 0.00 0.00 0.00 0.00 0.00 0.00 0.00 0.00 0.00 0.00 0.00 0.00 0.00 0.00 0.00 0.00 0.00 0.00 0.00 0.00 0.00 0.00 0.00 0.00 0.00 0.00 0.00 0.00 0.00 0.00 0.00 0.00 0.00 0.00 0.00 0.00 0.00 0.00 0.00 0.00
0.00 0.00 0.00 0.00 0.00 0.00 0.00 0.00 0.00 0.00 0.00 0.00 0.00 0.00 0.00 0.00 0.00 0.00 0.00 0.00 0.00 0.00 0.00 0.00 0.00 0.00 0.00 0.00 0.00 0.00 0.00 0.00 0.00 0.00 0.00 0.00 0.00 0.00 0.00 0.00 0.00 0.00 0.00
0.00 0.00 0.00 0.00 0.00 0.00 0.00 0.00 0.00 0.00 0.00 0.00 0.00 0.00 0.00 0.00 0.00 0.00 0.00 0.00 0.00 0.00 0.00 0.00 0.00 0.00 0.00 0.00 0.00 0.00 0.00 0.00 0.00 0.00 0.00 0.00 0.00 0.00 0.00 0.00 0.00 0.00 0.00
0.00 0.00 0.00 0.00 0.00 0.00 0.00 0.00 0.00 0.00 0.00 0.00 0.00 0.00 0.00 0.00 0.00 0.00 0.00 0.00 0.00 0.00 0.00 0.00 0.00 0.00 0.00 0.00 0.00 0.00 0.00 0.00 0.00 0.00 0.00 0.00 0.00 0.00 0.00 0.00 0.00 0.00 0.00
0.00 0.00 0.00 0.00 0.00 0.00 0.00 0.00 0.00 0.00 0.00 0.00 0.00 0.00 0.00 0.00 0.00 0.00 0.00 0.00 0.00 0.00 0.00 0.00 0.00 0.00 0.00 0.00 0.00 0.00 0.00 0.00 0.00 0.00 0.00 0.00 0.00 0.00 0.00 0.00 0.00 0.00 0.00
0.00 0.00 0.00 0.00 0.00 0.00 0.00 0.00 0.00 0.00 0.00 0.00 0.00 0.00 0.00 0.00 0.00 0.00 0.00 0.00 0.00 0.00 0.00 0.00 0.00 0.00 0.00 0.00 0.00 0.00 0.00 0.00 0.00 0.00 0.00 0.00 0.00 0.00 0.00 0.00 0.00 0.00 0.00
0.00 0.00 0.00 0.00 0.00 0.00 0.00 0.00 0.00 0.00 0.00 0.00 0.00 0.00 0.00 0.00 0.00 0.00 0.00 0.00 0.00 0.00 0.00 0.00 0.00 0.00 0.00 0.00 0.00 0.00 0.00 0.00 0.00 0.00 0.00 0.00 0.00 0.00 0.00 0.00 0.00 0.00 0.00
0.00 0.00 0.00 0.00 0.00 0.00 0.00 0.00 0.00 0.00 0.00 0.00 0.00 0.00 0.00 0.00 0.00 0.00 0.00 0.00 0.00 0.00 0.00 0.00 0.00 0.00 0.00 0.00 0.00 0.00 0.00 0.00 0.00 0.00 0.00 0.00 0.00 0.00 0.00 0.00 0.00 0.00 0.00
0.00 0.00 0.00 0.00 0.00 0.00 0.00 0.00 0.00 0.00 0.00 0.00 0.00 0.00 0.00 0.00 0.00 0.01 0.01 0.00 0.00 0.00 0.00 0.00 0.01 0.01 0.01 0.01 0.01 0.01 0.00 0.00 0.00 0.00 0.00 0.00 0.00 0.00 0.00 0.00 0.00 0.00 0.00
0.00 0.00 0.00 0.00 0.00 0.00 0.00 0.00 0.00 0.00 0.00 0.00 0.00 0.00 0.00 0.00 0.01 0.01 0.01 0.00 0.00 0.00 0.00 0.00 0.00 0.00 0.00 0.00 0.00 0.00 0.00 0.00 0.00 0.00 0.00 0.00 0.00 0.00 0.00 0.00 0.00 0.00 0.00
MSLP
1021.21 1021.49 1021.79 1021.73 1021.63 1021.56 1021.41 1021.26 1021.16 1020.90 1020.65 1020.42 1020.33 1020.37 1020.33 1020.08 1019.88 1019.76 1019.67 1019.42 1019.21 1018.91 1018.61 1018.35 1018.22 1018.22 1018.19 1018.11 1018.13 1018.16 1018.23 1018.08 1017.95 1017.82 1017.71 1017.68 1017.64 1017.61 1017.73 1017.89 1018.08 1018.35 1018.71
1021.12 1021.41 1021.71 1021.78 1021.77 1021.65 1021.46 1021.37 1021.25 1021.02 1020.81 1020.69 1020.40 1020.15 1019.99 1019.97 1019.93 1019.81 1019.57 1019.36 1019.09 1018.86 1018.56 1018.30 1018.09 1017.92 1017.83 1017.86 1017.96 1018.03 1018.06 1018.05 1017.95 1017.73 1017.66 1017.53 1017.39 1017.34 1017.37 1017.40 1017.51 1017.82 1018.17
1021.26 1021.50 1021.90 1021.87 1021.72 1021.42 1021.28 1021.16 1021.00 1020.90 1020.81 1020.56 1020.54 1020.17 1019.84 1019.58 1019.49 1019.47 1019.18 1018.96 1018.85 1018.60 1018.36 1018.18 1017.98 1017.80 1017.72 1017.57 1017.42 1017.40 1017.65 1017.88 1017.98 1017.67 1017.49 1017.25 1017.05 1016.91 1016.91 1017.11 1017.09 1017.12 1017.45
1021.54 1021.76 1021.90 1021.79 1021.45 1021.34 1021.49 1021.34 1021.27 1021.07 1021.01 1020.90 1020.70 1020.25 1019.95 1019.66 1019.44 1019.11 1018.82 1018.71 1018.56 1018.34 1018.11 1017.85 1017.66 1017.47 1017.28 1017.20 1017.17 1017.11 1017.04 1017.16 1017.50 1017.62 1017.41 1017.15 1016.91 1016.74 1016.65 1016.75 1016.97 1017.00 1017.18
1021.93 1021.95 1021.87 1021.71 1021.52 1021.44 1021.65 1021.65 1021.55 1021.56 1021.39 1020.97 1020.62 1020.21 1019.91 1019.62 1019.29 1019.07 1018.97 1018.66 1018.49 1018.45 1018.18 1017.76 1017.41 1017.13 1016.91 1016.77 1016.69 1016.58 1016.52 1016.50 1016.58 1016.77 1017.04 1016.99 1016.75 1016.57 1016.51 1016.42 1016.49 1016.74 1017.06
1022.09 1022.16 1022.13 1021.95 1021.75 1021.90 1021.99 1021.77 1021.67 1021.58 1021.43 1021.20 1020.76 1020.27 1019.88 1019.55 1019.23 1019.46 1019.46 1019.03 1018.91 1018.72 1018.62 1018.44 1018.04 1017.45 1017.03 1016.66 1016.39 1016.31 1016.24 1016.20 1016.21 1016.30 1016.43 1016.60 1016.66 1016.50 1016.45 1016.32 1016.31 1016.14 1016.45
1022.30 1022.34 1022.53 1022.38 1022.38 1022.47 1022.43 1022.24 1021.99 1021.76 1021.43 1021.01 1020.91 1020.47 1019.99 1019.49 1019.54 1019.56 1019.51 1019.52 1019.54 1019.28 1018.98 1018.72 1018.48 1017.89 1017.05 1016.55 1016.22 1015.94 1015.80 1015.74 1015.78 1015.85 1016.02 1016.22 1016.44 1016.60 1016.43 1016.25 1016.28 1016.13 1016.13
1022.64 1022.44 1022.92 1023.03 1022.87 1022.79 1022.62 1022.46 1022.25 1022.09 1021.77 1021.35 1021.45 1021.30 1020.25 1019.65 1019.75 1019.72 1019.69 1019.75 1019.90 1019.74 1019.53 1019.11 1018.54 1017.98 1017.48 1017.08 1016.67 1016.07 1015.62 1015.17 1015.19 1015.32 1015.47 1015.64 1015.87 1016.06 1016.17 1016.09 1016.00 1015.97 1015.73
1022.88 1023.08 1023.25 1023.14 1022.98 1022.89 1022.87 1022.67 1022.37 1022.35 1022.28 1021.90 1021.68 1021.63 1021.28 1020.89 1020.63 1019.81 1019.59 1019.77 1019.83 1019.92 1019.94 1019.58 1019.01 1018.39 1017.50 1016.97 1016.54 1016.26 1015.82 1015.47 1015.00 1014.95 1014.98 1015.18 1015.39 1015.64 1015.85 1015.86 1015.80 1015.66 1015.66
1023.49 1023.57 1023.41 1023.29 1023.19 1023.11 1023.11 1022.97 1022.78 1022.79 1022.52 1022.47 1022.05 1021.69 1021.53 1021.33 1020.95 1020.12 1020.03 1019.88 1019.97 1019.88 1019.88 1019.67 1019.12 1018.50 1017.82 1017.33 1016.62 1015.94 1015.87 1015.67 1015.29 1014.85 1014.76 1014.76 1015.01 1015.24 1015.37 1015.59 1015.65 1015.60 1015.69
1023.72 1023.60 1024.04 1023.71 1023.54 1023.48 1023.58 1023.60 1023.59 1023.55 1023.37 1023.16 1022.85 1022.49 1021.93 1021.62 1021.49 1021.28 1020.21 1020.16 1020.09 1019.77 1019.54 1019.45 1018.95 1018.39 1017.72 1017.33 1016.88 1016.34 1015.81 1015.59 1015.36 1015.36 1014.49 1014.53 1014.88 1014.95 1014.99 1015.17 1015.29 1015.22 1015.31
1024.16 1023.76 1024.35 1024.32 1024.26 1023.98 1023.97 1024.01 1023.95 1023.84 1023.72 1023.43 1023.33 1022.89 1022.62 1022.21 1021.61 1021.28 1020.87 1020.09 1019.92 1019.45 1019.35 1019.08 1018.74 1018.20 1017.58 1017.19 1016.70 1016.28 1016.06 1015.64 1015.18 1015.52 1014.86 1014.77 1014.98 1014.89 1014.66 1014.69 1015.02 1015.04 1015.06
1023.73 1023.63 1024.10 1024.25 1024.12 1023.90 1023.68 1023.53 1023.52 1023.57 1023.37 1023.17 1023.03 1022.92 1022.55 1022.33 1021.94 1021.26 1020.85 1020.24 1019.70 1019.23 1019.17 1018.81 1018.33 1017.87 1017.22 1016.93 1016.58 1016.24 1015.93 1015.65 1015.29 1015.29 1015.19 1014.85 1015.35 1015.10 1014.74 1014.57 1014.81 1015.16 1014.90
1023.99 1023.59 1023.97 1023.77 1023.55 1023.46 1023.43 1023.34 1023.08 1022.93 1023.14 1023.08 1022.96 1022.64 1022.21 1022.00 1021.61 1021.25 1021.04 1020.83 1019.65 1019.13 1018.82 1018.67 1018.14 1017.62 1017.13 1016.83 1016.26 1015.96 1015.87 1015.85 1015.73 1015.23 1015.17 1015.36 1015.38 1015.53 1015.13 1014.73 1014.72 1015.27 1015.38
1023.25 1023.29 1023.34 1023.25 1023.21 1023.25 1023.19 1023.17 1023.22 1022.53 1022.52 1022.70 1022.58 1022.29 1022.02 1021.71 1021.47 1021.31 1021.07 1020.95 1020.74 1020.19 1019.28 1018.75 1018.49 1017.63 1017.14 1016.58 1016.08 1015.84 1015.64 1015.46 1015.63 1015.58 1015.17 1015.28 1015.32 1015.28 1015.53 1015.04 1014.72 1015.26 1015.40
1022.90 1022.79 1022.72 1022.73 1022.88 1022.94 1022.79 1022.75 1022.65 1022.33 1022.43 1022.47 1022.42 1022.28 1022.09 1021.82 1021.43 1021.18 1020.71 1020.36 1020.31 1020.00 1019.37 1019.04 1018.24 1017.77 1017.30 1016.75 1016.18 1015.83 1015.56 1014.99 1015.50 1015.64 1015.04 1014.71 1014.74 1014.76 1015.45 1015.09 1014.91 1015.28 1015.38
1022.62 1022.57 1022.49 1022.38 1022.48 1022.77 1022.77 1022.43 1022.33 1022.30 1022.26 1022.34 1022.32 1022.19 1021.99 1021.71 1021.37 1021.04 1020.62 1020.19 1019.83 1019.44 1018.91 1018.15 1017.84 1017.50 1017.23 1016.92 1016.46 1016.09 1015.52 1014.95 1014.83 1015.49 1015.03 1014.75 1014.71 1014.97 1014.72 1014.81 1014.92 1015.26 1015.52
1022.84 1022.84 1022.66 1022.40 1022.29 1022.31 1022.60 1022.20 1022.03 1022.13 1022.08 1022.10 1022.13 1021.99 1021.76 1021.38 1021.11 1020.78 1020.37 1019.90 1019.55 1019.05 1018.62 1018.05 1017.95 1017.61 1017.22 1016.94 1016.64 1016.32 1015.79 1015.09 1014.66 1014.42 1014.76 1014.56 1014.69 1014.84 1014.84 1014.57 1014.47 1014.69 1015.17
1023.47 1023.48 1022.85 1022.06 1022.01 1022.08 1022.24 1022.28 1022.18 1022.18 1022.12 1022.04 1021.93 1021.77 1021.52 1021.21 1020.83 1020.41 1019.96 1019.42 1018.94 1018.33 1018.12 1017.77 1017.55 1017.35 1017.15 1016.87 1016.61 1016.30 1016.07 1015.80 1015.12 1014.33 1014.04 1014.16 1014.20 1014.55 1014.36 1014.20 1014.09 1014.33 1014.59
1022.49 1022.29 1022.47 1022.06 1021.74 1022.00 1022.19 1022.37 1022.23 1022.08 1021.97 1021.80 1021.59 1021.42 1021.23 1021.01 1020.64 1020.09 1019.45 1018.83 1018.23 1017.82 1017.46 1017.32 1017.26 1017.24 1017.10 1016.75 1016.65 1016.69 1016.55 1016.23 1015.84 1014.97 1014.33 1014.02 1013.88 1013.78 1013.70 1013.50 1013.74 1014.20 1014.50
1022.07 1022.17 1021.82 1021.81 1021.64 1021.88 1022.25 1022.34 1022.12 1021.87 1021.76 1021.56 1021.34 1021.18 1020.92 1020.61 1020.03 1019.46 1018.89 1018.50 1018.01 1017.57 1017.25 1017.02 1016.89 1016.89 1016.87 1016.76 1016.71 1016.67 1016.74 1016.62 1015.99 1015.49 1014.97 1014.61 1014.38 1014.09 1013.78 1013.51 1013.40 1013.91 1014.36
1021.84 1021.75 1021.78 1021.66 1021.85 1022.09 1022.31 1022.03 1021.83 1021.76 1021.59 1021.42 1021.21 1020.83 1020.53 1020.07 1019.52 1019.04 1018.57 1018.03 1017.67 1017.30 1017.08 1016.65 1016.47 1016.50 1016.49 1016.38 1016.37 1016.45 1016.51 1016.58 1016.21 1015.41 1015.25 1014.91 1014.84 1014.91 1014.44 1014.27 1013.85 1013.86 1013.99
1021.81 1021.94 1021.95 1022.06 1022.27 1022.33 1022.07 1021.81 1021.68 1021.60 1021.50 1021.27 1020.95 1020.56 1020.12 1019.57 1019.12 1018.61 1018.07 1017.54 1017.11 1016.78 1016.49 1016.34 1016.22 1016.12 1016.06 1015.96 1015.99 1016.04 1016.10 1016.10 1015.92 1015.49 1015.34 1014.92 1014.61 1014.65 1014.45 1014.06 1013.89 1013.93 1014.12
1021.96 1022.19 1022.39 1022.49 1022.55 1022.35 1022.00 1021.82 1021.73 1021.67 1021.48 1021.19 1020.76 1020.23 1019.69 1019.17 1018.70 1018.17 1017.51 1016.98 1016.67 1016.31 1015.99 1015.69 1015.46 1015.39 1015.29 1015.30 1015.45 1015.40 1015.46 1015.50 1015.35 1015.15 1015.25 1015.36 1014.66 1014.59 1014.26 1014.33 1014.34 1014.25 1014.23
1022.15 1022.42 1022.65 1022.72 1022.75 1022.57 1022.11 1021.94 1021.87 1021.81 1021.52 1021.07 1020.45 1019.91 1019.33 1018.89 1018.33 1017.61 1016.99 1016.69 1016.40 1015.91 1015.49 1015.01 1014.67 1014.63 1014.51 1014.56 1014.63 1014.87 1014.95 1015.05 1014.90 1014.85 1014.90 1015.21 1014.99 1014.87 1014.43 1014.20 1013.98 1013.91 1013.94
1022.36 1022.68 1022.94 1022.96 1022.92 1022.73 1022.29 1021.97 1021.77 1021.68 1021.48 1020.86 1020.35 1019.67 1019.14 1018.62 1017.90 1017.15 1016.52 1016.30 1015.98 1015.52 1015.25 1014.94 1014.73 1014.54 1014.41 1014.34 1014.22 1014.26 1014.33 1014.60 1014.60 1014.52 1014.29 1014.94 1014.61 1015.00 1014.83 1013.95 1013.85 1013.69 1013.81
Thickness
5618 5612 5604 5603 5602 5599 5599 5599 5597 5597 5596 5595 5594 5592 5590 5589 5588 5587 5585 5585 5586 5589 5590 5592 5594 5594 5594 5596 5596 5596 5596 5600 5602 5605 5607 5609 5611 5612 5611 5611 5612 5612 5612
5613 5606 5599 5595 5592 5590 5589 5588 5587 5588 5589 5586 5586 5586 5586 5583 5581 5580 5579 5579 5578 5578 5580 5582 5584 5585 5587 5586 5586 5587 5589 5590 5593 5596 5599 5603 5605 5606 5607 5610 5612 5610 5609
5603 5597 5590 5587 5584 5583 5582 5580 5580 5579 5578 5578 5577 5577 5576 5576 5575 5573 5574 5574 5572 5571 5571 5571 5572 5574 5575 5578 5581 5582 5581 5581 5580 5586 5589 5595 5600 5603 5604 5604 5609 5611 5610
5593 5589 5584 5580 5577 5575 5570 5569 5566 5567 5565 5564 5563 5564 5563 5562 5561 5562 5563 5562 5562 5563 5564 5564 5563 5564 5565 5568 5569 5572 5573 5574 5573 5574 5578 5584 5589 5594 5598 5600 5602 5603 5604
5578 5575 5572 5569 5567 5565 5559 5555 5553 5550 5549 5550 5551 5551 5550 5549 5547 5544 5544 5546 5548 5548 5548 5551 5554 5555 5556 5556 5560 5563 5566 5567 5568 5568 5568 5573 5578 5584 5587 5593 5597 5596 5595
5564 5558 5555 5553 5551 5547 5543 5542 5539 5536 5534 5534 5537 5537 5536 5535 5532 5527 5524 5525 5526 5527 5528 5529 5531 5536 5538 5541 5544 5545 5551 5555 5557 5559 5560 5561 5564 5571 5576 5581 5586 5591 5590
5552 5547 5542 5540 5536 5531 5526 5524 5522 5520 5519 5517 5514 5518 5518 5518 5512 5507 5504 5503 5501 5502 5502 5504 5507 5512 5519 5523 5526 5530 5532 5536 5542 5546 5547 5549 5550 5553 5560 5567 5572 5578 5583
5539 5535 5526 5519 5515 5510 5506 5503 5500 5496 5494 5492 5486 5482 5487 5496 5488 5484 5481 5478 5476 5475 5475 5477 5480 5485 5492 5498 5503 5509 5513 5521 5524 5528 5533 5537 5540 5542 5546 5553 5559 5566 5574
5525 5518 5510 5504 5498 5492 5486 5481 5477 5470 5465 5463 5459 5453 5449 5451 5448 5460 5460 5453 5451 5450 5447 5448 5451 5456 5464 5472 5481 5487 5492 5498 5505 5510 5514 5521 5526 5529 5532 5538 5546 5554 5560
5511 5501 5494 5487 5482 5475 5468 5460 5453 5445 5439 5434 5431 5428 5422 5418 5420 5427 5428 5429 5425 5423 5420 5421 5425 5432 5437 5444 5452 5464 5471 5478 5483 5488 5494 5500 5508 5513 5518 5520 5527 5537 5543
5494 5485 5473 5467 5460 5451 5440 5431 5422 5414 5407 5401 5396 5393 5393 5389 5384 5381 5395 5397 5396 5398 5396 5393 5397 5404 5410 5417 5425 5434 5445 5455 5460 5464 5475 5482 5485 5494 5501 5506 5510 5519 5528
5472 5465 5446 5435 5427 5420 5410 5401 5393 5386 5380 5375 5367 5362 5357 5354 5355 5352 5353 5368 5366 5375 5370 5365 5368 5375 5381 5388 5397 5407 5415 5427 5438 5442 5452 5459 5463 5471 5481 5491 5495 5501 5509
5455 5446 5431 5418 5407 5398 5390 5382 5371 5360 5353 5347 5342 5334 5331 5324 5318 5323 5321 5328 5334 5342 5341 5341 5338 5343 5350 5357 5366 5376 5387 5396 5408 5421 5428 5438 5437 5447 5458 5468 5477 5481 5490
5433 5424 5408 5397 5387 5375 5364 5356 5348 5339 5327 5317 5310 5307 5304 5301 5298 5297 5294 5291 5299 5309 5312 5312 5314 5316 5321 5328 5336 5345 5355 5364 5375 5391 5405 5413 5418 5425 5438 5449 5458 5462 5469
5416 5400 5388 5377 5366 5354 5341 5330 5321 5315 5305 5294 5289 5286 5283 5282 5280 5278 5277 5275 5272 5273 5287 5296 5296 5300 5303 5310 5316 5321 5328 5339 5346 5361 5378 5389 5399 5408 5414 5428 5439 5444 5451
5400 5386 5372 5359 5342 5330 5322 5315 5306 5297 5283 5274 5270 5267 5265 5265 5265 5265 5267 5267 5264 5263 5266 5274 5285 5288 5290 5294 5300 5305 5310 5320 5323 5333 5353 5370 5381 5392 5394 5407 5418 5424 5432
5377 5361 5345 5334 5320 5311 5304 5296 5288 5277 5269 5262 5257 5255 5253 5251 5251 5251 5251 5252 5254 5256 5257 5268 5270 5276 5278 5279 5284 5291 5298 5307 5315 5315 5329 5346 5358 5370 5378 5388 5397 5402 5408
5349 5337 5321 5315 5306 5299 5289 5285 5277 5267 5262 5256 5249 5245 5242 5241 5238 5236 5235 5237 5237 5239 5241 5248 5250 5258 5263 5267 5271 5276 5283 5296 5306 5313 5317 5327 5337 5349 5359 5371 5383 5390 5392
5325 5310 5305 5303 5295 5286 5277 5272 5265 5257 5251 5244 5238 5232 5228 5224 5222 5219 5219 5221 5222 5226 5226 5229 5236 5240 5245 5252 5259 5264 5270 5279 5291 5303 5311 5317 5327 5334 5347 5358 5367 5372 5377
5312 5302 5292 5290 5283 5273 5264 5259 5253 5246 5240 5234 5227 5220 5213 5207 5203 5203 5204 5207 5210 5213 5215 5213 5218 5221 5226 5236 5243 5247 5251 5261 5272 5287 5296 5305 5314 5323 5336 5346 5351 5354 5361
5299 5288 5286 5277 5272 5263 5255 5248 5243 5238 5230 5223 5215 5207 5201 5195 5193 5191 5190 5190 5193 5197 5200 5202 5207 5206 5210 5217 5225 5232 5238 5245 5257 5269 5281 5290 5299 5308 5319 5326 5335 5337 5342
5285 5278 5274 5269 5260 5254 5245 5240 5235 5228 5220 5211 5203 5198 5192 5188 5184 5180 5176 5176 5178 5180 5183 5188 5194 5196 5198 5204 5211 5220 5227 5233 5244 5258 5266 5277 5284 5290 5300 5306 5316 5322 5329
5274 5269 5264 5257 5251 5243 5238 5233 5226 5217 5208 5200 5194 5190 5186 5181 5175 5171 5167 5165 5165 5168 5172 5176 5182 5185 5188 5193 5202 5211 5218 5226 5235 5243 5251 5262 5274 5283 5289 5296 5305 5310 5314
5267 5261 5254 5249 5241 5235 5230 5224 5216 5206 5199 5192 5188 5184 5179 5174 5168 5164 5160 5157 5156 5158 5162 5168 5176 5179 5183 5189 5196 5206 5214 5222 5231 5236 5240 5245 5256 5267 5276 5284 5288 5293 5299
5261 5254 5248 5241 5234 5227 5222 5214 5207 5198 5192 5187 5184 5179 5174 5167 5162 5159 5156 5151 5149 5151 5155 5162 5170 5174 5180 5186 5193 5202 5211 5219 5228 5231 5233 5237 5245 5250 5259 5268 5276 5280 5284
5255 5247 5240 5233 5227 5218 5213 5207 5201 5192 5186 5185 5180 5176 5169 5163 5159 5157 5155 5150 5148 5149 5152 5157 5163 5170 5176 5183 5192 5200 5207 5214 5220 5221 5229 5231 5238 5238 5241 5255 5262 5267 5272